sat.trackr.live / text

‹ back to catalog

STARLINK-32516

NORAD 62176 · 2024-225P

PAYLOAD ACTIVE UNKNOWN

§ Identity

Operator
Country
US
Launch date
2024-11-30
Launch site
AFWTR
Launch vehicle
Mass (kg)
RCS (m²)

Purposes: comms

External: N2YO · Heavens-Above · Gunter

§ Orbital elements

Epoch: 2026-05-24T22:30:35.323776Z

Period
96.11 min
Inclination
70.0019°
Eccentricity
0.0002325
Mean motion
14.98338470 rev/d
Perigee alt
570.4 km
Apogee alt
573.6 km
Semi-major
6,950.2 km
B*
3.4551e-4
RAAN
332.3105°
Arg perigee
269.7489°
Mean anomaly
90.3403°
Rev number
8,129

§ Raw data

STARLINK-325161 62176U 24225P   26144.93790884  .00004033  00000+0  34551-3 0  99922 62176  70.0019 332.3105 0002325 269.7489  90.3403 14.98338470 81291

JSON: /api/v1/satellites/62176 · /tle

For live sub-satellite position, see the globe view (requires WebGL).

§ Visibility from observer

Set your observer location to see the next 7 days of passes ≥ 10°. The values pass through the URL so the page stays shareable.

No JS? Fill the form by hand. The geolocation button needs JavaScript.